This is the latest recevied weather packets stored in our database for station/object 4S6DRJ-13. If no packets are shown the sender has not sent any weather packets the latest 10 day(s).
| Time | Temp. | Humidity | Pressure | Rain* | Wind** | Luminosity | Snow |
|---|---|---|---|---|---|---|---|
| 1788040496 | 27.78° C | 84% | 1009 hPa | 0 mm | 0.89 m/s, 217° | 0 W/m² | - |
| 1788040435 | 27.78° C | 84% | 1008.8 hPa | 0 mm | 1.34 m/s, 253° | 0 W/m² | - |
| 1788040374 | 27.78° C | 84% | 1008.8 hPa | 0 mm | 0.89 m/s, 234° | 0 W/m² | - |
| 1788040313 | 27.78° C | 84% | 1009.1 hPa | 0 mm | 0.89 m/s, 319° | 0 W/m² | - |
| 1788040252 | 27.78° C | 84% | 1009 hPa | 0 mm | 0.89 m/s, 200° | 0 W/m² | - |
| 1788040191 | 27.78° C | 84% | 1009.2 hPa | 0 mm | 1.79 m/s, 243° | 0 W/m² | - |
| 1788040130 | 27.78° C | 84% | 1009 hPa | 0 mm | 0.45 m/s, 243° | 0 W/m² | - |
| 1788040069 | 27.78° C | 84% | 1009 hPa | 0 mm | 0.89 m/s, 252° | 0 W/m² | - |
| 1788040008 | 27.78° C | 84% | 1009 hPa | 0 mm | 0 m/s | 0 W/m² | - |
| 1788039947 | 27.78° C | 84% | 1009.1 hPa | 0 mm | 0.45 m/s, 219° | 0 W/m² | - |
| 1788039886 | 27.78° C | 84% | 1009.1 hPa | 0 mm | 0.45 m/s, 229° | 0 W/m² | - |
| 1788039825 | 27.78° C | 84% | 1009.1 hPa | 0 mm | 0.45 m/s, 286° | 0 W/m² | - |
| 1788039764 | 27.78° C | 84% | 1009 hPa | 0 mm | 0.89 m/s, 251° | 0 W/m² | - |
| 1788039703 | 27.78° C | 84% | 1009 hPa | 0 mm | 0.89 m/s, 208° | 0 W/m² | - |
| 1788039642 | 27.78° C | 84% | 1009.1 hPa | 0 mm | 2.24 m/s, 232° | 0 W/m² | - |
| 1788039581 | 27.78° C | 85% | 1009.1 hPa | 0 mm | 0.45 m/s, 220° | 0 W/m² | - |
| 1788039520 | 27.78° C | 85% | 1009.2 hPa | 0 mm | 1.34 m/s, 222° | 0 W/m² | - |
| 1788039459 | 27.78° C | 85% | 1009.2 hPa | 0 mm | 1.34 m/s, 210° | 0 W/m² | - |
| 1788039398 | 27.78° C | 85% | 1009.2 hPa | 0 mm | 0 m/s | 0 W/m² | - |
| 1788039337 | 27.78° C | 85% | 1009.2 hPa | 0 mm | 2.24 m/s, 218° | 0 W/m² | - |
| 1788039215 | 27.78° C | 85% | 1009.1 hPa | 0 mm | 0.89 m/s, 275° | 0 W/m² | - |
| 1788039093 | 27.78° C | 85% | 1009.3 hPa | 0 mm | 0.89 m/s, 199° | 0 W/m² | - |
| 1788038971 | 27.78° C | 86% | 1009.5 hPa | 0 mm | 0.89 m/s, 221° | 0 W/m² | - |
| 1788038910 | 27.78° C | 86% | 1009.4 hPa | 0 mm | 1.79 m/s, 3° | 0 W/m² | - |
| 1788038849 | 27.78° C | 86% | 1009.6 hPa | 0 mm | 0.89 m/s, 230° | 0 W/m² | - |
* Rain latest hour (hover to see other rain measurements)
** Current wind speed in m/s (hover to see current wind gust speed)